Location: Krasnoyarskiy Pitomnik
(51.1333°N, 71.6167°E)
Time: 22:20:20
(UTC+00:00)

Altair - Pass Details

Date: 18 April 2024
Orbit: 1501 x 1682 km, 47.2° (Epoch: 19 May)

Event Time Altitude Azimuth Distance (km) Brightness Sun altitude
Rises 18:29:32 0° 275° (W) 4,863 10.3 -27.0°
Reaches altitude 10° 18:32:44 10° 272° (W) 3,853 9.7 -27.1°
Maximum altitude 18:42:22 66° 194° (SSW) 1,700 7.4 -27.3°
Enters shadow 18:46:58 34° 125° (SE) 2,358 8.1 -27.4°
Drops below altitude 10° 18:51:37 10° 115° (ESE) 3,708 - -27.5°
Sets 18:54:38 0° 113° (ESE) 4,671 - -27.5°
